To NAV CANADA Home Page Login to a new session Search on AWWS site Feedback and Comments Disclaimer Vers la page française équivalente Tips FAQ What's new on the site To the Forecasts and Observations / NOTAM section To "File a Flight Plan" website Publications and other links Update of the User's profile FIC Telephone Numbers My Weather Data Folder Route Weather Data Regional Weather Data Local Weather Data To the Forecasts and Observations / NOTAM section
Request Generated 08/22/2017 at 01:38:27 UTC . Weather information available at that time is displayed.

METAR/TAF

NAIN/NL    

LWIS CYDP 220100Z AUTO 32012G20KT 08/M00 A2975=
LWIS CYDP 220000Z AUTO 32011KT 08/00 A2975=
METAR CYDP 212300Z 35006KT 15SM BKN240 BKN250 08/04 A2972 RMK CI5CS2
LAST STAFFED OB/ NEXT 220800 SLP065=

*** REMARK        : Forecast period has ended; this was the last TAF issued
*** REMARQUE : La période de prévision est échue; ceci était le dernier TAF qui a été émis
TAF CYDP 211938Z 2120/2123 34010G20KT P6SM BKN025 TEMPO 2120/2123
P6SM -SHRA BKN020
RMK NXT FCST WILL BE ISSUED AT 220945Z=
Your time UTC time
Weather data provided by Environment Canada and NAV CANADA